Vorticity
14 7 5 8 9 9 7 8 11 15 20 22 18 10 3 0 1 4 4 3 6 8 7 9 9 8 9 8 7 6 6 5 5 5 5 6 6 6 6 6 6 5 5 5 6 6 6 6 6 7 7 7 7 7 8 8 8 9 9 8 8 8 8 6 6 6 5 5 5 5 5 5 6 6 7 9 10 10 10 9 9 9 9 12 13
13 10 9 9 11 12 12 10 9 11 14 20 24 24 20 13 9 10 11 14 17 15 15 19 20 18 16 16 16 13 11 10 9 9 9 9 9 9 8 8 7 7 6 6 6 5 5 4 5 5 4 4 4 4 5 5 6 6 7 8 8 8 8 7 7 7 6 7 6 6 7 6 6 6 6 7 8 9 10 11 13 14 15 14 12
10 11 14 16 17 16 17 18 17 16 16 16 19 23 25 26 25 21 16 15 16 15 15 17 17 17 16 16 18 19 19 19 18 19 18 18 18 18 18 18 17 17 16 15 15 14 13 12 11 10 9 8 8 7 7 6 6 6 6 6 6 6 6 6 6 6 6 6 6 6 8 8 10 11 12 13 14 15 16 16 16 14 12 10 9
6 8 10 11 13 13 13 16 18 19 19 20 21 22 23 24 24 22 19 18 18 17 17 17 16 17 16 15 15 14 15 16 16 17 16 16 16 16 17 17 17 18 18 19 20 20 21 22 21 21 22 21 19 18 18 17 16 16 15 15 15 14 14 13 14 14 15 16 17 19 19 20 21 22 21 20 18 16 14 12 11 10 9 10 10
5 6 7 7 9 10 10 11 13 13 13 13 14 15 17 17 16 16 15 14 12 10 10 10 10 11 10 10 10 9 10 10 10 10 10 10 10 9 8 7 7 7 7 8 8 9 12 13 14 16 18 20 22 22 23 22 22 23 24 25 25 26 26 26 27 27 26 26 25 25 23 22 21 19 17 16 14 12 11 9 9 9 10 10 9
9 8 8 8 8 8 9 9 9 9 9 10 10 9 9 9 9 8 8 8 8 8 10 10 10 10 10 11 11 11 11 11 11 11 10 10 10 9 8 8 8 8 7 6 3 3 3 3 4 5 6 7 9 9 10 10 11 13 14 14 14 15 16 17 18 19 19 19 18 17 16 15 14 12 11 10 9 9 9 10 10 9 9 9 8
7 8 7 6 6 6 7 7 7 8 8 8 9 9 9 9 9 8 9 9 9 9 10 10 11 12 12 12 12 13 13 13 13 13 13 13 13 12 12 12 13 12 12 11 9 7 5 4 4 3 3 2 1 1 2 2 4 5 6 8 9 9 10 11 12 13 13 13 12 11 10 10 10 10 10 10 10 12 13 13 12 12 12 12 12
4 5 5 5 6 6 7 7 7 7 7 6 7 7 7 7 7 7 8 8 8 9 9 9 9 9 9 10 10 10 9 9 9 10 10 10 10 10 11 11 11 12 13 13 13 13 12 10 9 7 7 7 7 7 7 6 6 6 7 8 8 8 9 9 8 7 5 5 4 5 6 7 8 9 11 11 10 10 9 7 7 8 8 8 8
8 8 8 8 8 8 8 8 8 8 7 6 6 6 6 6 6 6 6 6 6 6 6 6 6 6 6 6 6 6 6 6 7 8 8 9 9 9 9 9 9 9 8 9 10 11 12 13 13 12 11 11 11 12 12 12 11 9 8 6 6 7 7 7 6 5 6 7 8 9 9 8 9 9 9 8 7 6 5 5 6 7 7 8 7
14 13 13 12 12 12 12 11 11 11 9 8 7 6 6 6 6 6 6 6 6 6 6 7 7 7 7 6 6 6 5 6 7 7 7 7 8 9 9 9 9 9 8 8 8 9 10 10 11 11 11 11 11 11 13 14 12 10 7 6 6 8 7 8 8 9 10 11 12 12 11 11 12 11 11 11 13 14 13 12 14 14 15 14 12
15 15 14 15 14 14 13 13 13 12 12 11 11 10 9 8 8 8 7 7 7 6 6 6 6 6 5 5 5 5 5 6 7 6 6 6 7 7 7 6 7 7 8 8 8 8 9 9 9 9 9 9 9 9 9 9 8 8 7 6 7 8 7 7 7 8 9 10 9 9 9 10 9 8 9 11 11 12 12 12 14 14 14 13 13
13 13 13 13 14 13 13 13 13 14 14 14 14 14 13 13 13 12 12 12 12 11 11 10 9 8 7 6 6 5 5 5 5 6 6 7 7 7 6 6 6 6 7 8 8 8 8 8 8 8 8 8 9 8 7 7 7 8 9 8 8 8 8 8 8 8 8 7 7 7 7 8 8 8 10 10 10 10 10 10 10 9 11 12 12
14 14 14 14 14 14 14 14 14 14 15 15 15 15 14 14 14 13 13 13 13 13 13 13 14 13 13 13 12 11 10 8 7 8 7 7 7 7 7 7 8 8 9 10 10 9 10 9 9 9 9 8 8 8 7 7 7 7 8 9 9 9 10 10 10 9 8 8 8 9 10 10 10 10 11 10 10 11 10 11 11 10 11 12 13
12 12 12 12 12 12 12 11 11 11 11 11 12 12 13 14 14 14 14 13 12 11 10 10 11 11 12 13 14 14 14 12 12 11 10 10 10 9 10 10 11 12 12 12 12 12 12 12 12 12 12 12 12 11 11 11 11 12 12 12 13 12 12 12 12 12 11 12 12 12 11 11 11 12 12 11 11 11 11 12 12 13 13 13 16
6 6 6 6 7 7 7 6 6 6 6 6 6 6 7 8 10 11 13 14 14 14 13 11 9 8 7 8 8 10 11 11 12 12 12 13 13 13 14 14 13 13 12 12 13 13 13 14 14 14 14 14 15 15 15 15 15 15 14 13 13 12 11 11 11 10 10 10 10 9 9 10 11 11 11 11 11 12 13 13 12 12 12 15 21
6 6 6 6 6 6 6 5 5 5 5 5 5 6 7 7 8 9 9 11 12 13 13 14 13 12 10 8 6 6 6 7 8 9 9 10 10 11 12 12 11 10 9 9 9 9 9 10 10 10 10 10 11 11 11 11 10 10 9 8 7 7 6 6 6 6 6 6 5 6 7 7 9 9 10 12 14 14 12 10 9 10 9 16 26
7 8 8 9 9 9 9 8 8 7 8 8 8 10 10 11 12 13 12 13 12 12 12 13 14 15 14 13 11 9 8 7 6 6 7 6 6 6 7 7 6 5 5 5 5 5 6 6 6 7 7 6 7 7 8 7 7 7 7 7 7 7 6 7 6 6 6 6 6 7 7 7 7 8 10 13 13 11 8 5 6 9 9 13 20
7 7 8 7 7 8 9 10 10 10 10 10 9 9 10 10 12 13 15 16 16 15 15 14 15 17 17 17 17 15 13 11 9 9 9 8 8 6 5 6 5 4 5 6 6 6 6 6 6 7 6 6 7 7 7 7 7 7 8 8 8 8 8 8 8 8 9 9 9 9 8 8 8 9 11 13 11 7 6 5 7 11 12 12 13
11 10 9 9 8 9 8 8 9 9 8 8 8 9 10 11 11 13 16 19 19 18 18 18 19 20 20 20 21 21 20 18 15 14 12 11 11 10 9 8 7 7 7 8 8 9 9 9 8 7 7 7 7 7 6 6 7 7 8 8 8 9 10 10 11 11 11 11 10 10 11 10 10 11 12 13 9 4 4 6 8 15 18 15 11
15 14 14 13 11 11 11 10 9 9 9 9 10 11 11 11 11 13 16 20 22 20 19 19 18 17 17 18 18 20 21 21 20 19 17 15 14 13 12 11 9 9 9 9 10 9 8 8 7 6 7 6 6 6 5 5 6 6 6 7 7 8 9 10 11 11 11 11 11 11 11 11 12 13 13 11 6 3 4 5 8 16 21 17 12
16 17 18 18 16 15 14 13 12 10 8 7 7 8 10 11 13 16 19 21 21 20 20 19 18 17 16 15 15 16 17 17 18 19 20 20 19 18 18 16 14 12 10 10 10 10 9 9 7 6 7 6 6 6 5 5 6 7 7 7 6 8 8 8 9 9 9 11 12 12 14 14 13 14 12 8 4 3 3 4 8 17 21 20 23
16 16 18 19 20 19 16 14 14 12 10 8 8 8 10 14 18 20 20 18 16 15 17 17 16 16 14 13 13 12 12 12 12 13 14 15 16 18 19 20 21 20 17 14 12 11 11 11 11 11 11 11 10 10 9 9 9 9 8 7 6 7 7 6 7 8 9 11 14 16 16 14 13 12 10 5 3 3 3 4 12 23 28 30 33
21 20 19 18 19 21 20 16 13 12 12 11 10 11 14 18 22 21 18 16 14 15 17 18 18 18 17 17 17 17 17 18 17 17 16 15 15 15 15 15 17 19 19 17 15 14 13 13 13 13 14 15 15 13 12 11 10 9 8 7 6 6 6 7 9 9 11 13 16 16 15 14 13 10 7 6 4 2 3 10 24 34 35 30 25
21 20 20 18 17 19 21 19 15 14 14 12 12 14 18 21 22 21 20 20 20 19 19 19 20 20 20 20 20 20 21 21 21 22 22 22 22 21 19 18 16 15 15 14 12 12 12 11 11 11 12 13 12 11 10 9 8 7 7 6 6 5 7 9 10 11 14 16 16 16 13 11 10 9 8 7 4 3 12 28 38 35 26 18 13
19 19 20 20 19 19 20 20 18 16 13 13 15 18 20 22 25 26 25 22 19 16 16 16 16 16 17 18 17 17 17 17 17 18 17 17 18 18 19 20 20 20 19 17 15 15 12 10 9 10 10 11 10 9 9 8 7 7 7 7 7 8 11 13 15 17 18 16 15 13 11 11 10 9 6 4 8 20 34 40 33 21 13 11 10
21 22 23 22 21 22 19 16 17 17 16 17 18 18 19 24 28 26 22 18 15 14 14 15 17 19 20 20 19 18 17 16 15 15 16 18 19 19 19 19 19 20 21 22 22 21 19 17 14 11 9 8 9 11 11 12 14 14 14 15 17 18 20 20 18 17 15 13 12 11 10 9 7 6 9 18 30 39 37 26 16 11 11 11 9
24 23 23 21 20 20 16 12 13 17 18 19 16 15 20 27 26 20 15 13 13 13 13 13 14 17 18 19 18 17 16 16 17 18 20 20 21 22 23 23 21 20 19 19 20 21 21 22 23 23 21 19 18 19 18 17 17 17 18 20 21 21 20 17 15 15 13 11 10 8 7 10 14 22 32 38 37 29 17 10 11 12 11 9 7
23 20 20 20 19 17 13 9 10 15 20 20 14 11 20 29 26 17 12 12 11 10 10 11 12 12 15 18 20 19 18 19 20 20 19 19 22 26 29 30 30 27 22 20 19 20 21 20 20 23 26 25 24 23 21 19 18 17 17 17 15 15 15 14 12 11 8 7 10 16 22 30 37 41 38 29 18 11 9 12 13 10 8 7 6
21 20 19 19 18 15 12 8 6 9 16 20 15 9 16 29 31 22 13 10 12 11 10 10 11 10 12 17 19 19 19 18 17 15 15 18 25 31 35 37 37 36 33 27 21 19 22 21 16 14 16 18 19 20 20 20 18 15 13 13 13 13 13 11 9 9 14 22 31 36 38 38 34 26 18 12 10 11 12 12 9 7 7 6 6
20 20 19 19 17 14 12 9 6 5 9 16 17 11 8 17 28 29 23 15 12 10 9 10 11 10 9 12 14 15 17 18 16 14 14 16 21 28 35 39 39 37 34 28 22 20 22 21 18 16 17 19 20 19 18 15 13 12 13 14 13 11 9 10 15 23 31 37 36 31 25 19 14 11 10 11 12 12 10 9 7 6 7 6 7
22 19 17 19 18 16 13 10 7 5 4 8 14 15 10 7 10 19 25 25 21 16 11 9 11 10 8 8 8 9 13 17 18 16 13 13 17 23 30 36 38 36 34 31 28 27 26 23 21 20 20 19 17 14 13 13 13 14 14 10 8 10 14 20 25 27 26 22 17 13 11 10 10 11 12 12 11 9 8 7 6 7 7 7 8
23 22 19 18 17 17 15 13 11 10 7 5 7 11 14 12 8 7 11 17 22 24 21 15 11 10 9 9 8 8 9 13 16 17 15 13 15 18 23 28 31 32 33 31 27 24 22 20 18 17 15 14 14 14 15 15 13 11 9 9 13 19 22 22 19 15 12 11 10 11 11 11 12 12 11 11 9 8 7 7 7 7 7 8 8
14 19 21 21 19 17 16 14 13 12 11 9 7 6 8 12 13 12 10 9 12 18 23 22 18 13 10 8 8 8 9 9 11 14 16 17 15 14 15 19 21 22 23 22 19 17 15 14 14 13 14 15 16 15 13 10 9 9 13 17 21 20 17 13 11 11 12 12 12 12 11 12 12 12 10 9 7 7 7 7 7 8 8 9 9
5 8 12 16 19 20 20 20 17 15 14 13 12 9 8 7 8 11 13 13 11 11 15 19 21 19 16 12 9 8 10 10 10 10 12 16 18 17 14 13 13 13 14 14 15 14 14 15 15 16 16 14 11 9 9 10 13 17 19 19 16 12 10 11 12 14 13 12 11 12 12 12 11 9 8 7 7 7 8 7 7 9 9 9 9
5 4 4 5 8 11 14 18 19 19 20 19 17 15 13 10 8 7 8 11 13 12 11 13 17 21 22 19 14 12 12 12 13 11 9 10 14 17 17 15 14 14 14 15 16 16 15 15 14 11 10 9 9 11 15 17 19 18 15 12 11 10 12 14 13 12 11 10 11 11 11 11 10 8 7 8 7 7 7 7 8 9 8 9 9
5 5 4 3 3 3 4 6 8 11 14 17 19 20 19 17 15 11 7 7 9 11 12 11 12 17 23 24 20 17 15 14 14 13 12 11 10 11 13 14 14 14 13 12 12 11 10 9 9 9 11 14 16 18 19 18 16 13 10 10 12 14 14 12 10 9 9 10 11 11 10 10 9 7 7 7 6 7 7 7 8 9 9 10 10
5 5 5 4 4 4 3 2 3 3 4 6 8 12 16 19 20 18 15 11 8 7 10 12 11 12 18 23 23 20 16 14 12 10 10 13 14 12 11 11 9 9 9 8 8 9 10 12 14 16 17 17 17 16 14 12 10 10 11 13 14 13 11 9 9 10 11 12 11 11 9 8 8 7 7 7 6 7 8 8 9 9 9 9 9
3 5 5 5 5 5 4 3 3 3 3 3 3 3 5 8 12 17 20 19 15 10 8 9 11 11 13 19 24 23 18 13 11 10 10 14 17 16 13 13 13 12 13 13 14 15 17 18 18 16 15 14 13 12 10 10 11 13 14 14 12 9 8 10 10 11 11 11 10 9 8 7 7 7 7 7 7 7 8 9 9 9 9 9 10
2 3 4 4 5 5 4 4 4 3 3 3 3 2 2 2 4 8 13 18 20 18 11 8 10 11 11 14 21 25 21 12 9 11 15 19 21 19 14 13 14 16 17 19 19 18 17 16 14 12 11 11 10 11 12 13 15 15 12 10 9 9 9 10 10 10 10 9 9 8 7 7 7 7 7 7 8 8 8 8 9 9 10 10 10
1 2 2 3 4 5 5 5 5 4 4 4 3 3 3 2 2 3 5 10 16 20 18 13 9 9 12 13 16 23 25 16 8 10 16 20 21 20 17 15 16 18 19 19 18 15 13 12 10 9 9 10 12 14 15 15 12 10 8 8 8 9 9 9 9 9 9 9 8 8 8 8 7 8 8 8 8 8 9 8 9 10 10 10 10
2 1 1 1 2 3 4 5 5 5 4 4 4 4 3 2 2 2 3 5 10 17 21 19 13 9 11 12 13 18 24 20 11 9 14 17 17 17 18 19 19 17 15 13 11 11 10 8 8 9 12 15 16 15 13 10 8 8 8 8 8 9 9 10 10 9 9 9 9 8 8 8 8 8 9 8 8 9 9 9 10 10 10 11 11
3 2 2 2 2 2 3 3 5 6 5 4 4 3 4 3 2 2 3 5 8 14 20 22 18 12 9 11 13 15 20 23 16 10 12 16 15 14 16 17 15 12 10 9 9 10 8 7 11 15 16 16 14 11 8 8 8 8 8 8 9 10 10 10 10 9 9 9 9 8 8 8 8 9 9 8 9 9 9 9 10 10 10 11 10
4 4 4 3 3 3 3 3 4 5 5 5 4 3 4 3 2 2 4 6 11 17 22 24 23 16 10 10 12 13 16 21 19 13 12 16 16 13 14 14 10 9 9 8 8 8 9 12 16 17 14 11 9 8 8 8 8 9 10 10 10 10 10 10 10 9 9 8 8 8 9 9 9 9 9 9 9 10 9 10 10 10 10 10 10
5 5 5 5 4 4 4 3 4 5 5 5 4 3 4 3 3 3 6 12 21 29 31 29 27 20 12 9 11 12 14 19 20 16 13 16 18 16 14 12 10 8 7 6 7 10 16 19 18 13 9 8 8 7 8 9 10 10 9 9 9 10 10 10 9 8 8 9 9 8 9 9 9 9 9 9 9 9 9 9 9 9 10 10 10
6 6 6 6 6 6 5 4 5 5 5 5 4 3 3 4 3 5 13 24 34 40 40 36 31 23 15 10 10 11 12 17 21 19 15 16 18 17 13 11 9 6 3 4 8 14 20 20 14 9 8 8 8 9 10 9 9 9 8 8 9 10 9 9 9 8 8 9 9 8 9 9 9 8 8 8 9 9 9 9 9 9 10 10 10
5 5 6 6 6 7 6 6 6 6 5 5 5 4 4 5 5 9 22 35 38 35 36 39 36 26 16 11 11 11 11 15 20 22 18 16 16 16 12 9 6 4 3 5 10 17 20 17 11 9 10 10 9 10 10 8 8 8 8 8 8 9 9 9 9 8 8 8 8 8 9 8 8 9 8 8 9 8 8 8 9 9 9 10 9
4 5 5 6 6 7 7 7 7 6 6 5 4 4 5 5 6 15 30 38 31 23 26 37 40 31 17 11 11 12 11 14 19 22 20 16 14 13 12 8 4 4 5 7 12 17 18 13 9 9 11 10 10 9 8 8 8 8 7 8 8 8 9 9 8 8 9 9 8 8 8 8 8 8 8 8 8 8 8 9 9 9 9 9 9
4 4 4 5 6 7 7 7 7 6 6 5 4 5 6 5 8 21 34 34 24 17 22 32 40 36 22 10 9 12 12 14 19 21 19 15 12 12 12 9 6 5 7 8 12 17 16 11 9 10 10 9 10 9 7 8 9 8 7 8 8 8 9 9 8 8 9 8 7 8 8 8 8 8 7 8 8 7 8 9 8 8 9 9 9
3 3 3 4 5 6 6 7 7 6 6 5 4 5 6 5 9 24 36 29 18 18 22 27 37 40 27 11 8 10 11 16 22 20 14 12 11 11 12 11 8 6 7 9 12 16 16 11 9 10 9 8 9 8 7 8 9 8 8 8 8 8 9 9 8 9 8 7 8 8 7 7 8 7 7 8 7 7 8 8 8 8 9 8 9
3 2 3 4 5 6 6 8 8 6 6 5 3 5 7 5 8 26 38 27 14 16 21 22 32 42 32 14 8 8 8 15 25 22 11 8 10 10 11 13 10 8 8 9 11 15 16 12 10 10 9 8 8 7 7 8 8 8 8 8 8 9 9 9 9 9 8 7 8 7 7 8 8 7 7 7 7 7 8 8 7 8 9 8 9
2 3 3 4 6 6 6 7 8 6 6 5 3 5 7 4 7 26 40 28 11 13 20 19 27 41 37 20 10 7 4 10 22 23 13 7 8 11 12 12 11 8 7 8 11 15 15 12 10 10 9 9 8 7 7 8 7 7 8 9 8 9 10 9 10 10 9 8 8 7 7 8 8 7 8 8 6 7 8 7 7 8 8 8 10
Height
5572 5573 5573 5573 5573 5574 5574 5574 5574 5575 5575 5576 5577 5578 5579 5580 5582 5583 5584 5585 5585 5586 5587 5587 5587 5587 5587 5587 5587 5587 5587 5587 5587 5588 5588 5588 5588 5587 5587 5586 5587 5587 5586 5586 5586 5585 5585 5585 5584 5583 5582 5582 5582 5581 5581 5580 5579 5579 5578 5577 5576 5574 5572 5571 5573 5575 5574 5572 5572 5570 5569 5567 5565 5565 5563 5560 5559 5557 5555 5554 5552 5550 5548 5545 5543
5569 5570 5570 5571 5571 5571 5571 5571 5572 5572 5572 5573 5573 5574 5574 5575 5576 5577 5578 5579 5580 5581 5581 5581 5581 5581 5581 5581 5580 5580 5580 5580 5580 5580 5581 5581 5580 5580 5579 5579 5579 5579 5579 5579 5578 5577 5577 5577 5577 5576 5574 5574 5574 5573 5573 5572 5571 5571 5570 5569 5568 5566 5564 5563 5564 5565 5565 5564 5563 5561 5560 5558 5557 5556 5555 5553 5551 5548 5547 5545 5544 5542 5540 5537 5535
5566 5567 5567 5568 5568 5568 5568 5569 5569 5569 5569 5570 5570 5570 5571 5571 5572 5572 5573 5574 5575 5575 5575 5575 5575 5575 5575 5574 5574 5574 5573 5573 5573 5573 5573 5573 5573 5572 5572 5572 5572 5572 5571 5571 5570 5569 5570 5570 5569 5568 5566 5567 5567 5565 5564 5563 5562 5562 5562 5560 5560 5559 5556 5554 5554 5555 5555 5555 5554 5553 5552 5550 5549 5548 5546 5544 5542 5540 5538 5537 5535 5533 5532 5529 5526
5564 5564 5565 5565 5566 5566 5566 5566 5566 5566 5566 5566 5566 5567 5567 5567 5567 5568 5568 5569 5569 5569 5569 5569 5569 5569 5569 5568 5568 5568 5567 5567 5567 5567 5566 5566 5566 5565 5565 5565 5565 5565 5564 5564 5563 5562 5562 5562 5561 5560 5559 5559 5559 5557 5556 5555 5554 5554 5553 5552 5551 5550 5548 5547 5546 5546 5546 5545 5545 5545 5543 5542 5540 5539 5537 5535 5534 5532 5530 5528 5527 5525 5523 5521 5518
5562 5562 5562 5563 5563 5563 5563 5563 5563 5563 5563 5563 5563 5563 5563 5563 5563 5563 5564 5564 5564 5564 5564 5564 5564 5564 5563 5563 5562 5562 5561 5561 5561 5561 5560 5560 5559 5559 5558 5558 5558 5558 5557 5557 5556 5555 5555 5555 5554 5553 5552 5551 5551 5549 5548 5548 5547 5546 5545 5544 5543 5542 5541 5539 5538 5537 5537 5537 5537 5536 5535 5534 5532 5531 5529 5527 5526 5524 5522 5520 5519 5517 5514 5512 5509
5560 5560 5560 5560 5560 5560 5560 5560 5560 5560 5560 5560 5560 5559 5559 5559 5559 5559 5559 5559 5559 5559 5558 5558 5558 5558 5557 5557 5557 5556 5556 5555 5555 5554 5554 5554 5553 5553 5552 5552 5552 5551 5551 5550 5550 5549 5549 5548 5547 5546 5545 5544 5543 5542 5541 5541 5540 5539 5538 5537 5536 5535 5533 5532 5531 5530 5529 5529 5528 5528 5528 5526 5525 5524 5522 5520 5518 5517 5515 5513 5511 5508 5506 5503 5501
5557 5558 5558 5558 5558 5557 5557 5557 5556 5556 5556 5556 5556 5556 5555 5555 5555 5555 5555 5554 5554 5554 5554 5553 5553 5553 5552 5551 5551 5551 5550 5550 5549 5548 5548 5548 5548 5547 5546 5546 5545 5545 5544 5544 5543 5542 5541 5541 5540 5539 5538 5537 5536 5535 5534 5534 5533 5532 5531 5530 5529 5528 5527 5526 5524 5523 5522 5521 5520 5520 5520 5519 5517 5516 5515 5512 5511 5509 5507 5505 5503 5500 5498 5495 5493
5555 5555 5555 5555 5555 5554 5554 5554 5553 5553 5553 5552 5552 5552 5551 5551 5551 5550 5550 5550 5549 5549 5548 5548 5547 5547 5546 5546 5545 5545 5544 5544 5543 5543 5543 5543 5542 5542 5541 5540 5539 5538 5537 5537 5536 5535 5534 5533 5533 5532 5531 5530 5529 5529 5528 5527 5526 5525 5524 5523 5522 5521 5520 5519 5517 5516 5515 5514 5513 5513 5512 5511 5510 5509 5507 5505 5503 5502 5499 5497 5495 5492 5490 5488 5485
5553 5553 5553 5552 5552 5551 5551 5551 5550 5550 5549 5549 5548 5548 5547 5547 5546 5546 5545 5545 5544 5544 5543 5542 5542 5541 5540 5540 5539 5539 5538 5537 5537 5537 5537 5536 5536 5536 5535 5534 5533 5532 5531 5530 5529 5528 5527 5526 5526 5525 5524 5523 5522 5521 5520 5520 5519 5519 5517 5516 5515 5514 5513 5512 5510 5509 5508 5507 5506 5505 5504 5504 5502 5501 5499 5497 5495 5494 5492 5489 5488 5485 5482 5480 5477
5552 5551 5550 5550 5549 5549 5548 5548 5547 5546 5546 5545 5544 5544 5543 5542 5542 5541 5540 5540 5539 5538 5537 5537 5536 5535 5535 5534 5533 5533 5532 5531 5530 5530 5530 5530 5530 5529 5529 5528 5527 5526 5525 5524 5522 5521 5520 5520 5519 5518 5517 5516 5515 5514 5513 5512 5512 5512 5511 5509 5508 5507 5506 5504 5503 5501 5500 5499 5498 5497 5496 5496 5494 5492 5491 5489 5487 5486 5484 5482 5479 5477 5474 5472 5468
5550 5549 5548 5547 5547 5546 5545 5544 5544 5543 5542 5541 5540 5539 5538 5538 5537 5536 5535 5534 5533 5532 5531 5530 5530 5529 5528 5528 5527 5526 5525 5524 5524 5524 5523 5523 5523 5522 5522 5521 5520 5519 5518 5517 5515 5514 5513 5513 5512 5511 5510 5508 5508 5507 5507 5506 5505 5505 5504 5502 5501 5499 5498 5497 5496 5494 5493 5492 5490 5489 5489 5488 5486 5484 5483 5481 5479 5477 5476 5474 5471 5468 5465 5463 5460
5548 5547 5546 5545 5544 5543 5542 5540 5539 5538 5537 5536 5535 5534 5533 5532 5531 5530 5529 5528 5527 5526 5525 5524 5523 5522 5521 5521 5520 5519 5518 5517 5517 5516 5516 5516 5515 5515 5515 5514 5513 5512 5510 5509 5508 5507 5506 5505 5505 5503 5502 5501 5501 5500 5500 5499 5498 5497 5497 5495 5493 5492 5491 5489 5489 5487 5485 5484 5483 5482 5481 5480 5478 5477 5475 5473 5471 5469 5467 5465 5462 5460 5457 5454 5452
5545 5544 5543 5542 5541 5539 5538 5537 5535 5533 5532 5531 5529 5528 5527 5526 5525 5524 5523 5522 5520 5519 5518 5517 5516 5515 5514 5513 5513 5512 5511 5509 5509 5509 5508 5508 5508 5508 5508 5507 5506 5505 5503 5501 5500 5499 5499 5498 5497 5496 5495 5494 5493 5493 5493 5492 5491 5491 5490 5488 5487 5485 5483 5482 5481 5480 5478 5477 5476 5475 5474 5472 5470 5470 5467 5464 5463 5461 5459 5457 5454 5452 5449 5445 5443
5543 5541 5540 5539 5537 5536 5534 5533 5531 5530 5528 5527 5525 5523 5522 5520 5519 5517 5516 5515 5513 5512 5511 5510 5509 5507 5507 5506 5505 5504 5503 5502 5501 5501 5501 5500 5500 5501 5501 5500 5498 5497 5495 5494 5493 5492 5491 5491 5490 5489 5487 5487 5486 5486 5486 5485 5484 5484 5482 5481 5480 5478 5476 5475 5474 5472 5471 5470 5469 5467 5466 5464 5463 5462 5459 5457 5455 5453 5451 5449 5446 5443 5441 5437 5434
5540 5539 5537 5536 5534 5532 5531 5529 5527 5526 5524 5522 5521 5519 5517 5515 5514 5512 5510 5509 5507 5506 5504 5503 5502 5500 5499 5498 5498 5497 5495 5494 5493 5493 5492 5492 5492 5493 5493 5492 5490 5488 5487 5486 5485 5485 5483 5483 5483 5482 5481 5479 5479 5479 5479 5478 5477 5477 5475 5474 5472 5471 5469 5468 5467 5466 5465 5463 5461 5460 5459 5457 5455 5454 5452 5449 5448 5445 5443 5441 5438 5436 5433 5429 5426
5538 5536 5534 5532 5530 5529 5527 5525 5523 5521 5520 5518 5516 5514 5512 5510 5508 5506 5505 5503 5500 5499 5497 5496 5494 5493 5491 5490 5490 5489 5487 5486 5486 5485 5484 5484 5484 5485 5485 5485 5482 5480 5479 5478 5478 5477 5476 5475 5475 5475 5474 5473 5472 5472 5472 5471 5470 5470 5468 5467 5466 5464 5462 5461 5460 5460 5458 5456 5455 5453 5452 5450 5448 5446 5444 5442 5440 5438 5436 5433 5430 5428 5426 5422 5418
5535 5533 5530 5528 5526 5524 5523 5521 5519 5517 5515 5513 5511 5509 5507 5505 5503 5500 5499 5496 5494 5492 5490 5489 5487 5485 5484 5482 5481 5480 5479 5478 5478 5477 5476 5476 5477 5477 5477 5477 5475 5473 5471 5471 5470 5469 5468 5467 5467 5468 5467 5466 5465 5465 5465 5464 5463 5462 5461 5460 5459 5457 5455 5454 5454 5453 5451 5449 5448 5446 5445 5443 5441 5439 5437 5435 5433 5431 5428 5426 5423 5420 5417 5414 5410
5531 5529 5526 5524 5522 5520 5518 5516 5514 5512 5510 5507 5505 5503 5501 5499 5497 5494 5492 5490 5487 5485 5483 5482 5480 5478 5476 5475 5474 5473 5471 5470 5469 5469 5468 5468 5468 5469 5468 5468 5468 5466 5464 5463 5463 5462 5461 5460 5460 5460 5460 5459 5459 5458 5457 5456 5456 5455 5454 5453 5452 5450 5448 5447 5447 5446 5444 5442 5441 5439 5437 5435 5433 5432 5430 5427 5425 5423 5421 5418 5415 5413 5409 5406 5403
5527 5524 5522 5519 5517 5515 5513 5511 5509 5507 5505 5502 5500 5498 5496 5493 5490 5488 5485 5482 5480 5478 5476 5474 5472 5470 5469 5468 5466 5465 5464 5462 5461 5461 5460 5460 5460 5460 5460 5460 5459 5458 5457 5456 5455 5455 5454 5453 5453 5453 5453 5453 5452 5451 5451 5449 5449 5448 5447 5446 5445 5443 5442 5441 5440 5439 5437 5435 5433 5431 5430 5428 5426 5425 5423 5420 5418 5416 5413 5410 5408 5405 5401 5398 5395
5522 5520 5517 5514 5512 5510 5508 5506 5504 5501 5499 5497 5494 5492 5489 5487 5484 5481 5478 5476 5473 5471 5469 5467 5465 5463 5462 5461 5459 5458 5457 5455 5454 5453 5452 5452 5451 5451 5451 5451 5450 5449 5449 5448 5448 5447 5447 5446 5445 5445 5446 5446 5445 5444 5443 5443 5442 5441 5441 5439 5438 5437 5436 5434 5433 5432 5430 5428 5426 5424 5422 5421 5419 5418 5416 5413 5411 5409 5406 5403 5400 5397 5394 5390 5388
5518 5515 5512 5509 5507 5505 5503 5500 5498 5496 5493 5491 5489 5486 5483 5481 5478 5475 5472 5469 5467 5465 5463 5461 5459 5457 5456 5454 5452 5451 5449 5448 5447 5445 5444 5444 5443 5442 5442 5441 5441 5440 5440 5440 5439 5439 5439 5438 5437 5438 5438 5438 5438 5437 5436 5436 5435 5434 5433 5432 5431 5430 5429 5428 5426 5425 5423 5421 5419 5417 5416 5414 5412 5410 5408 5406 5404 5402 5399 5395 5392 5389 5386 5383 5381
5513 5510 5507 5505 5502 5500 5498 5496 5494 5491 5489 5486 5484 5481 5478 5475 5472 5469 5466 5463 5461 5459 5457 5455 5453 5451 5450 5448 5446 5444 5442 5441 5439 5438 5437 5436 5435 5434 5433 5432 5432 5431 5431 5431 5431 5431 5430 5429 5429 5430 5430 5431 5430 5430 5429 5429 5428 5427 5426 5426 5425 5424 5422 5421 5419 5418 5416 5414 5413 5411 5409 5407 5405 5403 5401 5399 5397 5395 5392 5388 5385 5382 5379 5376 5374
5508 5505 5502 5500 5497 5495 5493 5491 5489 5487 5484 5482 5479 5476 5473 5469 5466 5463 5460 5458 5455 5453 5451 5449 5447 5445 5444 5442 5440 5437 5435 5434 5432 5430 5429 5428 5427 5426 5425 5424 5423 5423 5423 5422 5422 5422 5422 5421 5421 5422 5422 5423 5423 5422 5422 5421 5421 5420 5419 5419 5418 5417 5415 5414 5412 5411 5409 5408 5406 5404 5402 5400 5398 5396 5394 5392 5390 5387 5385 5382 5379 5376 5373 5371 5369
5503 5500 5498 5495 5493 5491 5489 5487 5485 5483 5480 5478 5475 5471 5468 5464 5461 5458 5455 5452 5450 5448 5446 5444 5442 5440 5438 5436 5433 5431 5429 5427 5425 5423 5422 5420 5419 5418 5416 5415 5414 5414 5414 5413 5413 5413 5413 5412 5413 5414 5414 5415 5415 5415 5414 5414 5413 5413 5412 5412 5411 5410 5408 5407 5406 5404 5403 5401 5399 5397 5395 5394 5392 5390 5388 5385 5383 5381 5378 5375 5372 5370 5368 5366 5364
5500 5497 5494 5492 5490 5487 5485 5483 5481 5478 5476 5474 5470 5467 5463 5459 5456 5453 5450 5448 5446 5444 5442 5439 5437 5435 5433 5430 5428 5425 5423 5421 5419 5417 5415 5413 5411 5410 5408 5407 5406 5405 5405 5404 5404 5404 5404 5404 5404 5406 5406 5407 5407 5407 5407 5407 5406 5406 5406 5405 5404 5403 5402 5400 5399 5398 5396 5394 5392 5390 5389 5387 5385 5384 5381 5379 5376 5374 5371 5369 5367 5365 5364 5362 5360
5498 5495 5492 5489 5487 5485 5483 5480 5478 5475 5472 5470 5466 5463 5459 5455 5451 5448 5446 5444 5442 5440 5438 5436 5434 5431 5429 5426 5423 5420 5418 5415 5413 5410 5408 5407 5404 5402 5400 5399 5397 5396 5396 5395 5395 5395 5395 5396 5397 5398 5399 5399 5400 5400 5400 5400 5400 5400 5399 5398 5398 5397 5396 5394 5393 5392 5390 5388 5386 5385 5383 5381 5379 5377 5375 5372 5370 5368 5365 5364 5363 5361 5360 5358 5355
5496 5493 5490 5487 5485 5483 5481 5478 5475 5472 5469 5466 5463 5459 5455 5451 5448 5445 5443 5441 5439 5437 5435 5432 5430 5427 5425 5422 5419 5416 5413 5410 5407 5405 5402 5400 5398 5395 5393 5390 5389 5388 5387 5386 5386 5387 5388 5389 5390 5390 5391 5392 5392 5393 5393 5393 5393 5393 5393 5392 5391 5390 5389 5388 5387 5385 5384 5382 5380 5378 5376 5375 5373 5371 5368 5366 5364 5362 5361 5360 5359 5357 5355 5353 5351
5495 5492 5489 5486 5484 5481 5479 5476 5473 5470 5466 5463 5460 5456 5452 5448 5445 5442 5440 5438 5436 5434 5431 5429 5426 5424 5421 5418 5414 5411 5408 5405 5402 5399 5397 5394 5391 5388 5385 5382 5380 5379 5378 5378 5379 5380 5381 5382 5383 5384 5384 5385 5386 5386 5387 5387 5387 5387 5387 5386 5385 5384 5384 5383 5381 5380 5379 5376 5374 5372 5370 5368 5366 5364 5363 5361 5360 5359 5357 5356 5355 5353 5351 5349 5347
5495 5491 5488 5485 5482 5480 5477 5474 5471 5468 5464 5460 5457 5454 5450 5446 5443 5440 5437 5435 5433 5430 5428 5426 5423 5420 5417 5414 5411 5408 5404 5401 5398 5395 5392 5388 5384 5380 5377 5374 5372 5371 5371 5371 5372 5373 5374 5375 5376 5378 5379 5379 5380 5381 5381 5381 5382 5381 5381 5380 5380 5379 5379 5378 5377 5375 5373 5370 5368 5366 5364 5362 5361 5360 5359 5358 5357 5355 5354 5352 5351 5349 5347 5345 5343
5495 5491 5488 5485 5482 5479 5476 5473 5469 5466 5463 5459 5455 5451 5448 5445 5441 5438 5435 5432 5430 5427 5425 5422 5420 5417 5414 5410 5407 5404 5401 5397 5394 5391 5388 5384 5380 5376 5372 5369 5366 5365 5365 5366 5367 5368 5369 5370 5372 5373 5374 5375 5375 5376 5376 5376 5376 5376 5376 5376 5375 5375 5374 5373 5371 5369 5367 5365 5363 5361 5360 5359 5358 5357 5356 5355 5353 5352 5350 5349 5347 5345 5344 5341 5339
5495 5491 5487 5484 5481 5477 5474 5471 5468 5465 5461 5458 5454 5450 5446 5443 5439 5436 5433 5430 5427 5425 5422 5420 5417 5414 5410 5407 5404 5401 5398 5395 5391 5388 5385 5381 5377 5373 5369 5366 5364 5363 5363 5363 5364 5364 5366 5367 5368 5369 5370 5371 5371 5371 5372 5372 5372 5372 5372 5372 5371 5370 5369 5368 5366 5365 5363 5361 5360 5358 5357 5356 5355 5354 5353 5351 5350 5349 5347 5345 5344 5341 5339 5337 5334
5494 5490 5487 5484 5480 5477 5473 5470 5467 5463 5460 5457 5453 5450 5446 5442 5438 5435 5432 5429 5425 5422 5419 5417 5414 5411 5408 5405 5401 5398 5395 5392 5389 5386 5383 5379 5376 5372 5369 5366 5364 5362 5362 5362 5362 5363 5364 5365 5365 5366 5366 5367 5367 5368 5368 5368 5368 5368 5368 5367 5367 5366 5365 5363 5362 5361 5359 5358 5356 5355 5354 5353 5352 5351 5350 5348 5347 5345 5343 5342 5340 5337 5335 5332 5329
5494 5490 5487 5483 5480 5476 5473 5469 5466 5462 5459 5455 5452 5449 5445 5442 5438 5434 5430 5427 5423 5420 5417 5414 5411 5408 5405 5402 5399 5396 5393 5389 5386 5383 5380 5378 5375 5372 5369 5367 5364 5363 5362 5362 5362 5362 5362 5362 5363 5363 5364 5364 5364 5365 5365 5365 5365 5364 5364 5363 5363 5362 5361 5360 5359 5357 5356 5354 5353 5352 5351 5350 5349 5348 5347 5345 5344 5342 5340 5338 5336 5333 5330 5327 5324
5493 5490 5486 5483 5479 5476 5472 5469 5465 5461 5458 5454 5451 5447 5444 5441 5437 5433 5429 5426 5422 5418 5415 5411 5408 5405 5402 5399 5396 5393 5390 5387 5384 5381 5379 5376 5374 5371 5369 5367 5365 5363 5362 5361 5361 5360 5360 5361 5361 5361 5361 5361 5362 5362 5362 5361 5361 5361 5360 5360 5359 5358 5357 5356 5355 5354 5352 5351 5351 5350 5349 5348 5346 5345 5344 5342 5340 5339 5336 5334 5332 5329 5326 5323 5320
5493 5489 5486 5482 5479 5475 5472 5468 5464 5461 5457 5453 5450 5446 5443 5439 5436 5432 5428 5425 5421 5417 5413 5410 5406 5402 5399 5396 5393 5391 5388 5385 5382 5379 5377 5374 5372 5370 5368 5366 5364 5363 5361 5360 5360 5359 5359 5359 5359 5359 5359 5359 5359 5359 5358 5358 5358 5357 5357 5356 5356 5355 5354 5353 5352 5351 5350 5349 5348 5347 5346 5345 5343 5342 5340 5339 5337 5335 5333 5330 5328 5325 5322 5319 5315
5492 5489 5485 5482 5478 5474 5471 5467 5464 5460 5456 5452 5448 5445 5441 5438 5434 5430 5427 5423 5419 5415 5411 5407 5404 5400 5397 5393 5390 5388 5385 5382 5380 5377 5375 5373 5371 5369 5367 5365 5363 5362 5361 5360 5359 5358 5358 5357 5357 5357 5357 5356 5356 5356 5355 5355 5355 5354 5354 5353 5352 5351 5351 5350 5349 5348 5347 5346 5345 5344 5343 5342 5340 5339 5337 5335 5333 5331 5329 5326 5323 5321 5318 5314 5310
5492 5488 5485 5481 5477 5474 5470 5466 5462 5459 5455 5451 5447 5444 5440 5436 5432 5428 5425 5421 5417 5413 5409 5405 5402 5398 5394 5391 5387 5384 5382 5380 5377 5375 5373 5371 5369 5367 5365 5363 5362 5361 5359 5358 5358 5357 5356 5356 5355 5354 5354 5354 5353 5353 5353 5352 5352 5352 5351 5350 5349 5348 5348 5347 5346 5345 5345 5343 5342 5341 5340 5339 5337 5335 5334 5332 5329 5327 5325 5322 5320 5317 5313 5310 5306
5491 5487 5484 5480 5477 5473 5469 5465 5461 5458 5454 5450 5446 5442 5438 5434 5430 5427 5423 5419 5415 5411 5407 5403 5400 5396 5392 5389 5385 5382 5379 5377 5375 5373 5370 5368 5366 5364 5363 5361 5360 5359 5358 5356 5356 5355 5354 5353 5353 5352 5352 5352 5351 5351 5351 5350 5349 5349 5348 5347 5347 5346 5345 5345 5344 5343 5342 5341 5340 5338 5337 5336 5334 5332 5330 5328 5326 5323 5321 5318 5315 5312 5309 5305 5302
5489 5486 5482 5479 5475 5472 5468 5464 5460 5457 5453 5449 5444 5440 5437 5433 5429 5425 5421 5417 5413 5409 5405 5401 5397 5394 5390 5387 5383 5380 5377 5375 5373 5370 5368 5365 5363 5362 5360 5359 5358 5357 5355 5354 5354 5353 5352 5351 5351 5351 5350 5350 5350 5349 5348 5348 5347 5346 5346 5345 5344 5344 5343 5342 5341 5340 5339 5338 5337 5335 5334 5332 5331 5329 5327 5325 5322 5320 5317 5314 5311 5308 5305 5301 5298
5487 5484 5480 5477 5473 5470 5466 5463 5459 5455 5451 5447 5443 5439 5435 5431 5427 5422 5418 5414 5410 5406 5402 5399 5395 5391 5388 5384 5381 5378 5375 5373 5370 5368 5365 5363 5361 5359 5358 5357 5356 5355 5354 5353 5352 5351 5351 5350 5350 5349 5349 5348 5347 5347 5346 5345 5345 5344 5344 5343 5342 5341 5340 5339 5338 5337 5336 5335 5334 5332 5331 5329 5327 5325 5323 5321 5319 5316 5313 5310 5307 5304 5301 5298 5294
5485 5482 5478 5475 5471 5468 5464 5461 5457 5453 5449 5445 5441 5437 5432 5428 5424 5419 5415 5411 5407 5403 5400 5396 5392 5388 5385 5382 5379 5376 5373 5370 5368 5366 5363 5361 5359 5358 5356 5355 5354 5353 5352 5351 5351 5350 5349 5349 5348 5348 5347 5346 5345 5345 5344 5343 5343 5342 5341 5341 5340 5339 5338 5337 5336 5335 5334 5333 5331 5330 5328 5326 5324 5322 5320 5318 5315 5313 5310 5307 5304 5301 5298 5294 5291
5483 5479 5476 5473 5469 5466 5462 5458 5455 5451 5447 5443 5438 5434 5430 5425 5421 5416 5412 5407 5403 5400 5396 5392 5388 5385 5381 5379 5376 5373 5370 5368 5365 5363 5361 5359 5357 5356 5355 5354 5353 5352 5351 5350 5350 5349 5348 5348 5347 5346 5345 5344 5343 5343 5342 5341 5341 5340 5339 5339 5338 5337 5336 5335 5334 5333 5331 5330 5329 5327 5325 5323 5321 5319 5317 5314 5312 5309 5306 5303 5300 5297 5294 5291 5287
5480 5477 5473 5470 5467 5463 5459 5456 5452 5448 5444 5440 5435 5431 5427 5422 5417 5413 5408 5403 5398 5394 5391 5387 5384 5381 5378 5375 5372 5370 5367 5365 5363 5361 5359 5357 5356 5354 5353 5352 5351 5351 5350 5349 5348 5348 5347 5346 5345 5343 5343 5342 5341 5341 5340 5339 5339 5338 5337 5337 5336 5335 5334 5333 5331 5330 5329 5327 5326 5324 5322 5320 5318 5316 5313 5311 5308 5305 5302 5300 5297 5294 5290 5287 5283
5477 5474 5470 5467 5464 5460 5456 5453 5449 5445 5441 5437 5432 5428 5423 5418 5413 5408 5403 5397 5392 5387 5384 5381 5378 5376 5373 5371 5369 5367 5364 5362 5360 5358 5357 5355 5354 5353 5351 5350 5350 5349 5348 5347 5347 5346 5345 5344 5343 5341 5340 5340 5339 5338 5338 5337 5337 5336 5335 5334 5333 5332 5331 5330 5329 5327 5326 5324 5323 5321 5319 5317 5315 5312 5310 5307 5305 5302 5299 5296 5293 5290 5287 5283 5279
5474 5471 5468 5464 5461 5457 5454 5450 5446 5442 5438 5434 5429 5424 5420 5414 5409 5403 5397 5391 5385 5380 5376 5374 5372 5370 5368 5367 5365 5363 5361 5359 5357 5355 5354 5353 5352 5350 5350 5349 5348 5347 5346 5345 5344 5344 5343 5342 5341 5340 5339 5338 5337 5336 5336 5335 5334 5333 5332 5331 5331 5330 5328 5327 5326 5325 5323 5322 5320 5318 5316 5314 5311 5309 5307 5304 5301 5299 5296 5293 5290 5287 5283 5280 5276
5471 5468 5465 5461 5458 5454 5451 5447 5443 5439 5435 5430 5426 5421 5416 5411 5405 5398 5391 5385 5379 5375 5371 5368 5366 5364 5363 5362 5360 5359 5357 5356 5354 5352 5351 5350 5349 5348 5347 5347 5346 5345 5344 5343 5342 5341 5340 5339 5338 5337 5337 5336 5335 5334 5333 5333 5332 5331 5330 5329 5328 5327 5326 5325 5323 5322 5320 5319 5317 5315 5313 5311 5308 5306 5303 5301 5298 5296 5293 5290 5287 5283 5279 5276 5272
5467 5464 5461 5458 5454 5451 5447 5443 5439 5435 5431 5427 5422 5417 5412 5406 5400 5393 5387 5381 5375 5371 5367 5363 5361 5359 5358 5357 5356 5355 5353 5352 5351 5349 5348 5347 5347 5346 5345 5344 5343 5343 5342 5340 5340 5339 5338 5337 5336 5335 5335 5334 5333 5332 5331 5330 5329 5328 5327 5326 5325 5324 5323 5322 5320 5319 5317 5316 5314 5312 5310 5307 5305 5303 5300 5298 5295 5292 5289 5286 5283 5279 5276 5273 5269
5464 5461 5457 5454 5451 5447 5443 5440 5436 5432 5427 5423 5418 5413 5408 5402 5396 5389 5383 5377 5373 5368 5364 5360 5357 5355 5354 5353 5352 5351 5350 5349 5348 5347 5345 5345 5344 5343 5343 5342 5341 5340 5339 5338 5337 5336 5335 5335 5334 5333 5332 5332 5331 5330 5329 5328 5327 5326 5325 5324 5323 5322 5320 5319 5318 5316 5314 5313 5311 5308 5306 5304 5302 5299 5297 5295 5292 5289 5286 5283 5280 5276 5273 5269 5265
5460 5457 5454 5450 5447 5443 5440 5436 5432 5428 5424 5419 5414 5409 5404 5399 5393 5386 5380 5375 5370 5366 5361 5357 5354 5352 5350 5350 5349 5348 5346 5345 5345 5344 5343 5342 5341 5341 5340 5340 5339 5338 5337 5336 5335 5334 5333 5332 5331 5331 5330 5330 5329 5328 5327 5326 5325 5324 5323 5322 5320 5319 5318 5316 5315 5313 5311 5309 5307 5305 5303 5301 5299 5296 5294 5291 5289 5286 5283 5280 5277 5273 5270 5266 5262
5457 5454 5450 5447 5443 5440 5436 5432 5428 5424 5420 5415 5410 5405 5400 5395 5389 5383 5377 5372 5368 5364 5359 5355 5351 5349 5347 5346 5346 5345 5343 5342 5342 5341 5339 5339 5338 5338 5337 5337 5336 5335 5334 5333 5332 5331 5330 5329 5329 5328 5328 5327 5327 5325 5325 5324 5323 5322 5321 5319 5318 5317 5315 5314 5312 5311 5309 5307 5305 5302 5300 5298 5295 5293 5290 5288 5285 5283 5280 5277 5273 5270 5266 5263 5259
5453 5450 5446 5443 5440 5436 5433 5429 5425 5420 5416 5411 5407 5402 5397 5391 5386 5380 5374 5370 5365 5361 5357 5353 5349 5346 5344 5343 5343 5342 5341 5339 5339 5338 5336 5336 5335 5335 5334 5334 5333 5333 5332 5330 5329 5329 5328 5327 5326 5326 5325 5325 5324 5323 5322 5321 5320 5319 5318 5317 5316 5315 5313 5311 5310 5308 5306 5304 5302 5299 5297 5295 5292 5290 5287 5285 5282 5279 5277 5273 5270 5267 5263 5260 5256